When you browse on this site, cookies collect data to enhance your experience and personalize the content and advertising you see.
Visit our Privacy Policy to learn more. By continuing to use the site, you agree to this use of cookies and data.
  • In Latvia
  • List of Countries
  • For 7 days
  • Water Temperature
  • Weather Map
  • Weather Widgets
  • user-avatar
    Login

    Hourly Weather Liepaja

    Today, 17 September, Tuesday

    Time Temperature Precipitation Wind Pressure Humidity
    00:00 +9°C° 0.3 mm 7 mps 752 mmHg 77%
    01:00 +9°C° 0 mm 7 mps 752 mmHg 80%
    02:00 +9°C° 0.3 mm 7 mps 752 mmHg 81%
    03:00 +8°C° 0.3 mm 7 mps 752 mmHg 81%
    04:00 +8°C° 0.3 mm 6 mps 752 mmHg 82%
    05:00 +9°C° 0.1 mm 6 mps 751 mmHg 81%
    06:00 +9°C° 0.1 mm 5 mps 751 mmHg 80%
    07:00 +10°C° 0.1 mm 5 mps 751 mmHg 79%
    08:00 +12°C° 0.3 mm 5 mps 750 mmHg 78%
    09:00 +11°C° 0.3 mm 6 mps 750 mmHg 76%
    10:00 +13°C° 0.3 mm 6 mps 750 mmHg 74%
    11:00 +13°C° 0.6 mm 6 mps 749 mmHg 76%
    12:00 +11°C° 0.6 mm 6 mps 749 mmHg 77%
    13:00 +11°C° 0.6 mm 6 mps 748 mmHg 79%
    14:00 +10°C° 0.4 mm 6 mps 748 mmHg 79%
    15:00 +10°C° 0.4 mm 6 mps 747 mmHg 80%
    16:00 +10°C° 0.4 mm 6 mps 747 mmHg 80%
    17:00 +9°C° 0.2 mm 5 mps 747 mmHg 81%
    18:00 +8°C° 0.2 mm 4 mps 747 mmHg 83%
    19:00 +7°C° 0.2 mm 4 mps 746 mmHg 84%
    20:00 +6°C° 0.2 mm 4 mps 747 mmHg 86%
    21:00 +6°C° 0.2 mm 4 mps 747 mmHg 88%
    22:00 +6°C° 0.2 mm 5 mps 747 mmHg 90%
    23:00 +6°C° 0.2 mm 5 mps 747 mmHg 90%

    Tomorrow, 18 September, Wednesday

    Time Temperature Precipitation Wind Pressure Humidity
    00:00 +7°C° 0.2 mm 5 mps 748 mmHg 89%
    01:00 +7°C° 0.2 mm 5 mps 748 mmHg 89%
    02:00 +7°C° 0.2 mm 5 mps 749 mmHg 88%
    03:00 +7°C° 0.2 mm 6 mps 750 mmHg 87%
    04:00 +5°C° 0.2 mm 6 mps 750 mmHg 86%
    05:00 +6°C° 0.3 mm 7 mps 751 mmHg 85%
    06:00 +8°C° 0.3 mm 7 mps 752 mmHg 84%
    07:00 +9°C° 0.3 mm 8 mps 752 mmHg 84%
    08:00 +9°C° 0.7 mm 8 mps 753 mmHg 84%
    09:00 +10°C° 0.7 mm 8 mps 754 mmHg 84%
    10:00 +10°C° 0.7 mm 9 mps 754 mmHg 84%
    11:00 +10°C° 0.5 mm 9 mps 755 mmHg 82%
    12:00 +11°C° 0.5 mm 9 mps 755 mmHg 80%
    13:00 +11°C° 0.5 mm 9 mps 755 mmHg 78%
    14:00 +11°C° 0.3 mm 9 mps 756 mmHg 79%
    15:00 +10°C° 0.3 mm 9 mps 757 mmHg 80%
    16:00 +10°C° 0.3 mm 9 mps 757 mmHg 80%
    17:00 +9°C° 0.1 mm 8 mps 757 mmHg 81%
    18:00 +7°C° 0.1 mm 8 mps 758 mmHg 81%
    19:00 +8°C° 0.1 mm 7 mps 758 mmHg 82%
    20:00 +8°C° 0.2 mm 7 mps 758 mmHg 83%
    21:00 +8°C° 0.2 mm 7 mps 758 mmHg 85%
    22:00 +6°C° 0.2 mm 7 mps 759 mmHg 86%
    23:00 +6°C° 0.5 mm 7 mps 759 mmHg 87%

    Day after tomorrow, 19 September, Thursday

    Time Temperature Precipitation Wind Pressure Humidity
    00:00 +7°C° 0.5 mm 6 mps 759 mmHg 88%
    01:00 +7°C° 0.5 mm 6 mps 759 mmHg 89%
    02:00 +7°C° 0.3 mm 6 mps 759 mmHg 89%
    03:00 +6°C° 0.3 mm 7 mps 760 mmHg 88%
    04:00 +6°C° 0.3 mm 7 mps 760 mmHg 88%
    05:00 +8°C° 0.4 mm 7 mps 760 mmHg 87%
    06:00 +7°C° 0.4 mm 8 mps 760 mmHg 86%
    07:00 +9°C° 0.4 mm 8 mps 761 mmHg 85%
    08:00 +9°C° 0.7 mm 8 mps 761 mmHg 83%
    09:00 +10°C° 0.7 mm 9 mps 761 mmHg 81%
    10:00 +10°C° 0.7 mm 9 mps 762 mmHg 79%
    11:00 +10°C° 0.4 mm 9 mps 762 mmHg 76%
    12:00 +10°C° 0.4 mm 9 mps 763 mmHg 73%
    13:00 +11°C° 0.4 mm 9 mps 763 mmHg 70%
    14:00 +10°C° 0.2 mm 9 mps 763 mmHg 70%
    15:00 +10°C° 0.2 mm 9 mps 764 mmHg 70%
    16:00 +9°C° 0.2 mm 8 mps 764 mmHg 70%
    17:00 +7°C° 0 mm 8 mps 764 mmHg 72%
    18:00 +6°C° 0 mm 7 mps 764 mmHg 74%
    19:00 +5°C° 0 mm 7 mps 765 mmHg 77%
    20:00 +5°C° 0.1 mm 6 mps 765 mmHg 76%
    21:00 +5°C° 0.1 mm 6 mps 765 mmHg 76%
    22:00 +5°C° 0.1 mm 6 mps 765 mmHg 76%
    23:00 +5°C° 0.2 mm 6 mps 765 mmHg 76%

    20 September, Friday

    Time Temperature Precipitation Wind Pressure Humidity
    00:00 +5°C° 0.2 mm 6 mps 765 mmHg 76%
    01:00 +5°C° 0.2 mm 6 mps 765 mmHg 76%
    02:00 +5°C° 0 mm 6 mps 765 mmHg 75%
    03:00 +5°C° 0 mm 6 mps 765 mmHg 75%
    04:00 +5°C° 0 mm 6 mps 765 mmHg 75%
    05:00 +5°C° 0.1 mm 6 mps 765 mmHg 75%
    06:00 +7°C° 0.1 mm 6 mps 765 mmHg 76%
    07:00 +7°C° 0.1 mm 6 mps 765 mmHg 77%
    08:00 +8°C° 0.1 mm 5 mps 765 mmHg 70%
    09:00 +9°C° 0.1 mm 5 mps 766 mmHg 64%
    10:00 +10°C° 0.1 mm 5 mps 766 mmHg 58%
    11:00 +11°C° 0 mm 4 mps 766 mmHg 56%
    12:00 +12°C° 0 mm 4 mps 766 mmHg 55%
    13:00 +12°C° 0 mm 3 mps 767 mmHg 54%
    14:00 +11°C° 0 mm 3 mps 766 mmHg 56%
    15:00 +11°C° 0 mm 3 mps 766 mmHg 58%
    16:00 +12°C° 0 mm 2 mps 766 mmHg 60%
    17:00 +10°C° 0 mm 2 mps 766 mmHg 63%
    18:00 +9°C° 0 mm 2 mps 766 mmHg 65%
    19:00 +8°C° 0 mm 1 mps 767 mmHg 68%
    20:00 +7°C° 0 mm 2 mps 767 mmHg 68%
    21:00 +7°C° 0 mm 2 mps 766 mmHg 69%
    22:00 +7°C° 0 mm 2 mps 766 mmHg 69%
    23:00 +8°C° 0 mm 2 mps 766 mmHg 69%

    21 September, Saturday

    Time Temperature Precipitation Wind Pressure Humidity
    00:00 +8°C° 0 mm 3 mps 766 mmHg 69%
    01:00 +8°C° 0 mm 3 mps 766 mmHg 70%
    02:00 +8°C° 0 mm 3 mps 766 mmHg 71%
    03:00 +7°C° 0 mm 4 mps 766 mmHg 73%
    04:00 +7°C° 0 mm 4 mps 766 mmHg 75%
    05:00 +8°C° 0.1 mm 4 mps 766 mmHg 78%
    06:00 +8°C° 0.1 mm 4 mps 766 mmHg 81%
    07:00 +10°C° 0.1 mm 3 mps 766 mmHg 84%
    08:00 +12°C° 0 mm 4 mps 766 mmHg 79%
    09:00 +13°C° 0 mm 4 mps 766 mmHg 74%
    10:00 +15°C° 0 mm 4 mps 767 mmHg 69%
    11:00 +15°C° 0 mm 4 mps 767 mmHg 68%
    12:00 +17°C° 0 mm 3 mps 767 mmHg 66%
    13:00 +17°C° 0 mm 3 mps 767 mmHg 65%
    14:00 +15°C° 0 mm 4 mps 767 mmHg 68%
    15:00 +15°C° 0 mm 4 mps 766 mmHg 72%
    16:00 +14°C° 0 mm 4 mps 766 mmHg 76%
    17:00 +13°C° 0 mm 4 mps 767 mmHg 82%
    18:00 +12°C° 0 mm 3 mps 767 mmHg 88%
    19:00 +11°C° 0 mm 3 mps 767 mmHg 94%
    20:00 +11°C° 0 mm 3 mps 767 mmHg 94%
    21:00 +11°C° 0 mm 3 mps 767 mmHg 95%
    22:00 +11°C° 0 mm 3 mps 767 mmHg 95%
    23:00 +11°C° 0 mm 3 mps 767 mmHg 95%

    22 September, Sunday

    Time Temperature Precipitation Wind Pressure Humidity
    00:00 +11°C° 0 mm 3 mps 767 mmHg 96%
    01:00 +11°C° 0 mm 3 mps 767 mmHg 96%
    02:00 +11°C° 0 mm 3 mps 767 mmHg 96%
    03:00 +11°C° 0 mm 3 mps 767 mmHg 97%
    04:00 +12°C° 0 mm 3 mps 767 mmHg 97%
    05:00 +12°C° 0 mm 4 mps 767 mmHg 95%
    06:00 +13°C° 0 mm 4 mps 767 mmHg 94%
    07:00 +14°C° 0 mm 4 mps 767 mmHg 92%
    08:00 +15°C° 0 mm 4 mps 767 mmHg 87%
    09:00 +17°C° 0 mm 4 mps 767 mmHg 82%
    10:00 +17°C° 0 mm 5 mps 768 mmHg 77%
    11:00 +17°C° 0 mm 5 mps 768 mmHg 75%
    12:00 +17°C° 0 mm 5 mps 767 mmHg 72%
    13:00 +17°C° 0 mm 5 mps 767 mmHg 70%
    14:00 +17°C° 0 mm 5 mps 767 mmHg 73%
    15:00 +17°C° 0 mm 4 mps 767 mmHg 76%
    16:00 +17°C° 0 mm 4 mps 767 mmHg 79%
    17:00 +15°C° 0 mm 4 mps 767 mmHg 84%
    18:00 +13°C° 0 mm 4 mps 767 mmHg 88%
    19:00 +12°C° 0 mm 4 mps 767 mmHg 93%
    20:00 +12°C° 0 mm 4 mps 766 mmHg 92%
    21:00 +12°C° 0 mm 5 mps 766 mmHg 90%
    22:00 +12°C° 0 mm 5 mps 766 mmHg 88%
    23:00 +13°C° 0 mm 5 mps 766 mmHg 87%
    Show more